Regional Weather Roundup
Issued by NWS

Home | Current Version | Previous Version | Graphics & Text | Print | Product List | Glossary On
Versions: 1 2 3 4 5 6 7 8 9 10 11 12 13 14 15 16 17 18 19 20 21 22 23 24 25 26 27 28 29 30 31 32 33 34 35 36 37 38 39 40 41 42 43 44 45 46 47 48 49 50
100
ASUS43 KIND 222259
RWRIN

WEATHER ROUNDUP FOR INDIANA
NATIONAL WEATHER SERVICE INDIANAPOLIS IN
600 PM EST MON JAN 22 2018

NOTE: "FAIR" INDICATES FEW OR NO CLOUDS BELOW 12,000 FEET WITH NO
SIGNIFICANT WEATHER AND/OR OBSTRUCTIONS TO VISIBILITY.

* - STATION DOES NOT REPORT WEATHER SUCH AS PRECIPITATION OR FOG.

+ - STATION NOT QUALITY CONTROLLED BY THE NATIONAL WEATHER SERVICE.
    USE DATA WITH CAUTION...ESPECIALLY DEWPOINT AND RELATIVE
    HUMIDITY OBSERVATIONS.

INZ001>003-010>013-019-020-230000-
NORTHWEST INDIANA

CITY           SKY/WX    TMP DP  RH WIND       PRES   REMARKS
GARY /AIRPORT/ MOCLDY    55  46  71 S14       29.47S
KNOX *+        MOCLDY    52  48  87 S15G22    29.50S
MONTICELLO +   CLOUDY    52  47  84 S12G22    29.51R

$$

LMZ046-743>745-230000-
SOUTHERN LAKE MICHIGAN

STATION/POSITION TIME  TEMP    WIND        PRES    WAVE
                       AIR SEA DIR/SP/G            HT
                 (UTC) (F)     (DEG/KT/KT) (MB)    (FT)
BURNS HARBOR     2240   52     190/ 16/ 20  999.0S
MICHIGAN CITY    2230   51     170/ 14/ 17   N/A

$$

INZ004-005-014>016-021>024-230000-
NORTH CENTRAL INDIANA

CITY           SKY/WX    TMP DP  RH WIND       PRES   REMARKS
ELKHART        CLOUDY    50  48  93 S9        29.53F
GOSHEN         CLOUDY    50  48  93 S12       29.53F
PERU/GRISSOM   PTCLDY    49  49 100 S10       29.53S
SOUTH BEND     MOCLDY    50  47  89 S12       29.52F

$$

INZ006>009-017-018-025>027-230000-
NORTHEAST INDIANA

CITY           SKY/WX    TMP DP  RH WIND       PRES   REMARKS
FORT WAYNE     CLOUDY    53  49  86 S14       29.59R
KENDALLVILLE + DRIZZLE   50  50 100 S14G21    29.58R

$$

INZ028-029-035-036-043>045-051>053-230000-
WEST CENTRAL INDIANA

CITY           SKY/WX    TMP DP  RH WIND       PRES   REMARKS
GREENCASTLE +  CLOUDY    52  45  76 S13G18    29.54S
LAFAYETTE      FAIR      52  46  80 S9        29.51S
TERRE HAUTE    FAIR      54  48  80 S14       29.52S

$$

INZ030>032-037>040-046>048-054>057-064-065-230000-
CENTRAL INDIANA

CITY           SKY/WX    TMP DP  RH WIND       PRES   REMARKS
COLUMBUS       PTCLDY    50  46  87 S12       29.60F
INDIANAPOLIS   MOCLDY    53  48  83 S15G23    29.56F
-EAGLE CREEK   CLOUDY    54  48  80 S10       29.55S
SHELBYVILLE    FAIR      53  48  83 S13       29.58F

$$

INZ033-034-041-042-049-050-058-059-230000-
EAST CENTRAL INDIANA

CITY           SKY/WX    TMP DP  RH WIND       PRES   REMARKS
MUNCIE         CLOUDY    55  48  77 S13       29.59S
RICHMOND +     CLOUDY    50  46  87 S20       29.63F

$$

INZ060-061-067>069-081>083-085>088-230000-
SOUTHWEST INDIANA

CITY           SKY/WX    TMP DP  RH WIND       PRES   REMARKS
EVANSVILLE     FAIR      58  47  66 S12       29.57F
HUNTINGBURG +  CLOUDY    56  51  84 S10       29.59F

$$

INZ062-063-066-070>080-084-089>092-230000-
SOUTH CENTRAL AND SOUTHEAST INDIANA

CITY           SKY/WX    TMP DP  RH WIND       PRES   REMARKS
BLOOMINGTON    FAIR      54  47  77 S15       29.56F
FRENCH LICK *+ CLOUDY    54  50  87 S8        29.59F
SEYMOUR +      CLOUDY    55  50  82 S9        29.60F

$$





USA.gov is the U.S. government's official web portal to all federal, state and local government web resources and services.